Date String (YYYY-MM-DD hh:mm:ss) UTC,Instrument flags,Ambient pressure (hPa),Sample flow (lpm),Bypass flow (lpm),Sample temperature (°C),Ambient temperature (°C),ASC tube jacket temperature (°C),LED temperature (°C),Box temperature (°C),Sample RH (%),Span deviation,Mass concentration (μg/m³),Mass concentration (μg/m³),Mass concentration (μg/m³)
DateTimeUTC,F1_M11,P_M11,Q1_M11,Q2_M11,T1_M11,T2_M11,T3_M11,T4_M11,T5_M11,U1_M11,ZSPAN_M11,X0_M11,X2_M11,X1_M11
2022-08-02 05:00:00,,0826.7,4.99,0.00,29.3,27.4,00.0,38.1,31.1,22.1,0002.8,0009.62,0006.97,0006.71
2022-08-02 05:01:00,,0826.8,4.99,0.00,29.3,27.6,00.0,38.1,31.2,22.3,0002.8,0009.82,0007.15,0006.89
2022-08-02 05:02:00,,0826.7,5.01,0.00,29.3,27.8,00.0,38.1,31.2,22.4,0002.8,0010.06,0007.37,0007.11
2022-08-02 05:03:00,,0826.7,5.01,0.00,29.3,27.9,00.0,38.1,31.3,22.4,0002.8,0010.35,0007.60,0007.32
2022-08-02 05:04:00,,0826.7,5.00,0.00,29.4,28.1,00.0,38.2,31.3,22.4,0002.8,0010.53,0007.79,0007.49
2022-08-02 05:05:00,,0826.7,4.99,0.00,29.4,28.2,00.0,38.2,31.3,22.4,0002.8,0010.63,0007.93,0007.64
2022-08-02 05:06:00,,0826.7,5.01,0.00,29.4,28.3,00.0,38.2,31.4,22.3,0002.8,0010.51,0008.11,0007.80
2022-08-02 05:07:00,,0826.7,4.99,0.00,29.5,28.4,00.0,38.2,31.4,22.3,0002.7,0010.75,0008.32,0007.99
2022-08-02 05:08:00,,0826.7,5.00,0.00,29.5,28.5,00.0,38.2,31.4,22.3,0002.7,0011.24,0008.47,0008.15
2022-08-02 05:09:00,,0826.7,5.01,0.00,29.5,28.6,00.0,38.2,31.5,22.3,0002.5,0011.68,0008.62,0008.30
2022-08-02 05:10:00,,0826.7,5.01,0.00,29.5,28.3,00.0,38.2,31.4,22.2,0002.2,0011.82,0008.73,0008.42
2022-08-02 05:11:00,,0826.7,5.00,0.00,29.5,27.4,00.0,38.2,31.2,22.2,0002.3,0011.95,0008.85,0008.53
2022-08-02 05:12:00,,0826.7,5.01,0.00,29.4,27.0,00.0,38.2,31.1,22.2,0002.4,0012.04,0008.98,0008.65
2022-08-02 05:13:00,,0826.7,4.99,0.00,29.4,27.0,00.0,38.1,31.0,22.2,0002.6,0012.10,0009.08,0008.75
2022-08-02 05:14:00,,0826.7,5.01,0.00,29.3,27.1,00.0,38.1,31.0,22.3,0002.5,0012.14,0009.16,0008.85
2022-08-02 05:15:00,,0826.7,4.99,0.00,29.3,27.2,00.0,38.1,31.1,22.5,0002.1,0012.22,0009.25,0008.96
2022-08-02 05:16:00,,0826.7,4.99,0.00,29.3,27.4,00.0,38.1,31.1,22.5,0001.8,0012.24,0009.33,0009.05
2022-08-02 05:17:00,,0826.7,5.00,0.00,29.3,27.6,00.0,38.1,31.1,22.5,0001.9,0012.33,0009.41,0009.12
2022-08-02 05:18:00,,0826.7,5.00,0.00,29.3,27.7,00.0,38.1,31.2,22.5,0002.1,0012.35,0009.46,0009.18
2022-08-02 05:19:00,,0826.6,5.01,0.00,29.3,27.9,00.0,38.1,31.2,22.5,0002.3,0012.08,0009.51,0009.24
2022-08-02 05:20:00,,0826.7,5.01,0.00,29.3,28.0,00.0,38.1,31.3,22.6,0002.2,0011.87,0009.59,0009.30
2022-08-02 05:21:00,,0826.7,4.99,0.00,29.4,28.1,00.0,38.1,31.3,22.5,0002.2,0011.97,0009.66,0009.37
2022-08-02 05:22:00,,0826.6,5.01,0.00,29.4,28.3,00.0,38.1,31.4,22.5,0002.2,0012.18,0009.77,0009.44
2022-08-02 05:23:00,,0826.7,5.00,0.00,29.4,28.4,00.0,38.2,31.4,22.5,0002.3,0012.21,0009.81,0009.47
2022-08-02 05:24:00,,0826.7,5.00,0.00,29.5,28.5,00.0,38.2,31.4,22.4,0002.3,0012.18,0009.80,0009.47
2022-08-02 05:25:00,,0826.6,5.00,0.00,29.5,28.5,00.0,38.2,31.5,22.4,0002.4,0012.13,0009.78,0009.47
2022-08-02 05:26:00,,0826.6,5.00,0.00,29.5,28.6,00.0,38.2,31.5,22.4,0002.7,0012.11,0009.77,0009.47
2022-08-02 05:27:00,,0826.6,4.99,0.00,29.6,28.3,00.0,38.2,31.5,22.4,0002.4,0012.50,0009.81,0009.49
2022-08-02 05:28:00,,0826.6,5.01,0.00,29.5,27.4,00.0,38.2,31.2,22.4,0002.3,0012.99,0009.86,0009.52
2022-08-02 05:29:00,,0826.5,5.00,0.00,29.4,26.9,00.0,38.2,31.2,22.6,0002.0,0012.98,0009.88,0009.54
2022-08-02 05:30:00,,0826.5,5.00,0.00,29.3,26.9,00.0,38.1,31.0,22.6,0001.8,0013.04,0009.93,0009.58
2022-08-02 05:31:00,,0826.6,5.00,0.00,29.3,27.0,00.0,38.1,31.0,22.7,0002.0,0013.14,0009.98,0009.61
2022-08-02 05:32:00,,0826.7,4.99,0.00,29.3,27.1,00.0,38.1,31.0,22.8,0002.3,0013.19,0010.00,0009.59
2022-08-02 05:33:00,,0826.7,4.99,0.00,29.3,27.3,00.0,38.1,31.1,23.0,0002.4,0013.09,0009.95,0009.57
2022-08-02 05:34:00,,0826.7,5.00,0.00,29.3,27.5,00.0,38.1,31.1,23.2,0002.4,0013.06,0009.94,0009.58
2022-08-02 05:35:00,,0826.7,5.00,0.00,29.3,27.7,00.0,38.1,31.2,23.0,0002.4,0013.22,0009.96,0009.58
2022-08-02 05:36:00,,0826.7,5.00,0.00,29.3,27.8,00.0,38.1,31.2,22.8,0002.5,0013.26,0009.94,0009.53
2022-08-02 05:37:00,,0826.7,5.00,0.00,29.3,28.0,00.0,38.1,31.3,22.8,0002.4,0013.22,0009.87,0009.45
2022-08-02 05:38:00,,0826.6,5.00,0.00,29.3,28.1,00.0,38.1,31.3,22.8,0002.6,0012.93,0009.80,0009.35
2022-08-02 05:39:00,,0826.7,5.02,0.00,29.4,28.2,00.0,38.1,31.4,22.6,0002.7,0012.29,0009.66,0009.23
2022-08-02 05:40:00,,0826.7,4.99,0.00,29.4,28.3,00.0,38.1,31.4,22.4,0002.6,0012.20,0009.60,0009.17
2022-08-02 05:41:00,,0826.7,5.00,0.00,29.5,28.4,00.0,38.2,31.4,22.5,0002.6,0012.17,0009.55,0009.14
2022-08-02 05:42:00,,0826.7,4.99,0.00,29.5,28.5,00.0,38.2,31.5,22.4,0002.7,0012.04,0009.44,0009.05
2022-08-02 05:43:00,,0826.6,5.00,0.00,29.5,28.6,00.0,38.2,31.5,22.4,0002.6,0011.96,0009.36,0009.00
2022-08-02 05:44:00,,0826.7,4.99,0.00,29.6,28.7,00.0,38.2,31.5,22.3,0002.4,0011.95,0009.31,0008.94
2022-08-02 05:45:00,,0826.7,5.00,0.00,29.6,28.7,00.0,38.3,31.6,22.3,0002.3,0011.96,0009.28,0008.89
2022-08-02 05:46:00,,0826.7,5.00,0.00,29.6,28.2,00.0,38.3,31.5,22.2,0002.3,0011.93,0009.31,0008.91
2022-08-02 05:47:00,,0826.7,5.01,0.00,29.5,27.3,00.0,38.2,31.3,22.2,0002.4,0012.00,0009.40,0009.00
2022-08-02 05:48:00,,0826.7,4.99,0.00,29.5,27.1,00.0,38.2,31.2,22.4,0002.7,0012.19,0009.52,0009.11
2022-08-02 05:49:00,,0826.7,5.01,0.00,29.4,27.1,00.0,38.2,31.1,22.5,0002.7,0012.34,0009.64,0009.24
2022-08-02 05:50:00,,0826.7,4.99,0.00,29.3,27.2,00.0,38.2,31.1,22.5,0002.6,0012.53,0009.78,0009.37
2022-08-02 05:51:00,,0826.6,5.00,0.00,29.3,27.3,00.0,38.1,31.1,22.7,0002.8,0012.56,0009.83,0009.43
2022-08-02 05:52:00,,0826.6,5.01,0.00,29.3,27.5,00.0,38.1,31.2,22.7,0002.8,0012.57,0009.86,0009.45
2022-08-02 05:53:00,,0826.7,5.00,0.00,29.3,27.7,00.0,38.1,31.2,22.6,0002.6,0012.60,0009.93,0009.52
2022-08-02 05:54:00,,0826.7,5.00,0.00,29.4,27.8,00.0,38.1,31.2,22.5,0002.7,0012.65,0009.99,0009.58
2022-08-02 05:55:00,,0826.7,4.99,0.00,29.4,28.0,00.0,38.2,31.3,22.4,0002.7,0012.68,0010.05,0009.65
2022-08-02 05:56:00,,0826.7,4.99,0.00,29.4,28.1,00.0,38.2,31.3,22.4,0002.8,0012.72,0010.09,0009.70
2022-08-02 05:57:00,,0826.7,5.00,0.00,29.4,28.2,00.0,38.2,31.4,22.4,0002.6,0013.23,0010.09,0009.72
2022-08-02 05:58:00,,0826.7,5.01,0.00,29.4,28.3,00.0,38.2,31.4,22.3,0002.5,0013.22,0010.06,0009.68
2022-08-02 05:59:00,,0826.7,5.01,0.00,29.5,28.4,00.0,38.2,31.5,22.5,0002.5,0013.22,0010.03,0009.67
